Weather reports worldwide

Advertisment
Camborne, United Kingdom (3808): temperature & dewpoint: 09.12.2019 18:00:00 - 15.12.2019 18:00:00 (GMT)Camborne, United Kingdom (3808): temperature -20cm & temperature -100cm: 09.12.2019 18:00:00 - 15.12.2019 18:00:00 (GMT)Camborne, United Kingdom (3808): wind speed & gusts: 09.12.2019 18:00:00 - 15.12.2019 18:00:00 (GMT)Camborne, United Kingdom (3808): wind direction: 09.12.2019 18:00:00 - 15.12.2019 18:00:00 (GMT)Camborne, United Kingdom (3808): reduced air pressure: 09.12.2019 18:00:00 - 15.12.2019 18:00:00 (GMT)Camborne, United Kingdom (3808): visibility: 09.12.2019 18:00:00 - 15.12.2019 18:00:00 (GMT)Camborne, United Kingdom (3808): sunshine duration: 09.12.2019 18:00:00 - 15.12.2019 18:00:00 (GMT)Camborne, United Kingdom (3808): precipitation: 09.12.2019 18:00:00 - 15.12.2019 18:00:00 (GMT)
Date & Time tt [°C] td [°C] tt -20cm [°C] tt -100cm [°C] ff [km/h] ff [kn] fx [km/h] fx [kn] dd ppp [hPa] vv [km] sd [min] rr [mm]
15.12.2019 18:00:00 5,6 4,1 - - 21 11 46 25 SW 996,1 35 0 2,8
15.12.2019 17:00:00 5,3 4,3 - - 29 16 61 33 SW 996,6 4,0 0 1,4
15.12.2019 16:00:00 8,5 3,9 - - 41 22 65 35 SSW 995,6 28 0 0,0
15.12.2019 15:00:00 8,6 4,6 - - 41 22 65 35 SSW 995,6 26 18 0,8
15.12.2019 14:00:00 9,7 4,2 - - 46 25 65 35 SSW 995,9 27 6 0,0
15.12.2019 13:00:00 8,9 4,5 - - 34 18 59 32 SSW 996,2 20 18 0,0
15.12.2019 12:00:00 8,8 4,2 - - 37 20 54 29 SSW 996,7 28 12 0,0
15.12.2019 11:00:00 8,8 1,5 - - 37 20 54 29 SW 996,9 40 18 0,0
15.12.2019 10:00:00 7,9 3,3 - - 26 14 46 25 SW 996,5 23 0 0,0
15.12.2019 09:00:00 7,5 1,5 10,0 10,2 29 16 50 27 WSW 995,9 35 0 0,0
15.12.2019 08:00:00 7,3 3,1 - - 31 17 54 29 WSW 995,1 23 0 0,2
15.12.2019 07:00:00 7,6 2,8 - - 31 17 55 30 WSW 994,4 25 0 0,0
15.12.2019 06:00:00 7,3 3,3 - - 31 17 46 25 SW 993,5 25 0 0,0
15.12.2019 05:00:00 5,4 3,4 - - 21 11 48 26 SW 993,3 25 0 0,4
15.12.2019 04:00:00 6,8 3,0 - - 35 19 61 33 SW 993,3 28 0 0,0
15.12.2019 03:00:00 7,1 1,3 - - 31 17 57 31 WSW 993,1 22 0 0,0
15.12.2019 02:00:00 7,0 0,8 - - 34 18 61 33 WSW 992,8 25 0 0,0
15.12.2019 01:00:00 7,3 -0,2 - - 37 20 61 33 W 992,1 25 0 0,0
15.12.2019 00:00:00 6,3 1,4 - - 46 25 65 35 W 991,8 25 - 0,0
14.12.2019 23:00:00 6,5 3,7 - - 37 20 76 41 W 991,0 20 0 0,2
14.12.2019 22:00:00 7,8 4,2 - - 34 18 55 30 WSW 989,4 25 0 0,2
14.12.2019 21:00:00 8,0 4,1 - - 35 19 54 29 WSW 989,8 15 0 0,0
14.12.2019 20:00:00 8,0 5,1 - - 26 14 - - WSW 989,5 25 0 0,6
14.12.2019 19:00:00 8,5 6,9 - - 22 12 - - SW 989,9 18 0 0,0
14.12.2019 18:00:00 8,1 6,2 - - 31 17 59 32 SW 990,9 30 0 1,8
14.12.2019 17:00:00 9,0 7,1 - - 46 25 68 37 SW 991,8 4,0 0 1,4
14.12.2019 16:00:00 9,6 6,0 - - 39 21 61 33 SSW 992,6 12 0 0,0
14.12.2019 15:00:00 9,0 4,2 - - 31 17 46 25 SSW 993,8 23 0 0,0
14.12.2019 14:00:00 8,9 2,9 - - 24 13 - - SW 995,3 19 6 0,0
14.12.2019 13:00:00 8,6 1,1 - - 21 11 - - WSW 996,4 22 12 0,0
14.12.2019 12:00:00 8,6 0,2 - - 28 15 52 28 W 997,1 18 18 0,0
14.12.2019 11:00:00 8,5 -0,2 - - 41 22 67 36 W 996,9 17 30 0,0
14.12.2019 10:00:00 8,7 -0,7 - - 39 21 68 37 W 996,3 30 18 0,0
14.12.2019 09:00:00 8,5 -3,0 10,2 10,2 52 28 83 45 W 995,3 27 0 0,0
14.12.2019 08:00:00 8,2 1,6 - - 42 23 81 44 W 994,5 18 0 0,0
14.12.2019 07:00:00 8,4 4,7 - - 48 26 72 39 W 993,1 18 0 0,4
14.12.2019 06:00:00 8,7 4,5 - - 42 23 61 33 W 992,5 20 0 0,0
14.12.2019 05:00:00 8,3 4,7 - - 24 13 - - SW 992,5 15 0 0,0
14.12.2019 04:00:00 8,5 3,2 - - 29 16 57 31 WSW 993,3 11 0 0,0
14.12.2019 03:00:00 8,8 1,2 - - 39 21 57 31 W 993,4 18 0 0,0
14.12.2019 02:00:00 8,8 1,3 - - 37 20 65 35 W 992,7 20 0 0,0
14.12.2019 01:00:00 8,8 1,5 - - 46 25 74 40 WNW 991,9 18 0 0,0
14.12.2019 00:00:00 8,2 3,0 - - 42 23 91 49 WNW 990,9 18 - 0,2
13.12.2019 23:00:00 8,7 5,6 - - 39 21 76 41 WNW 989,7 15 0 0,0
13.12.2019 22:00:00 9,4 5,0 - - 52 28 89 48 WNW 987,9 18 0 0,0
13.12.2019 21:00:00 10,2 7,6 - - 59 32 93 50 W 984,2 10 0 0,0
13.12.2019 20:00:00 11,6 7,9 - - 55 30 83 45 W 984,0 12 0 0,0
13.12.2019 19:00:00 11,8 8,7 - - 55 30 89 48 W 984,4 12 0 0,2
13.12.2019 18:00:00 11,8 10,4 - - 52 28 76 41 W 985,1 13 0 1,4
13.12.2019 17:00:00 8,3 8,1 - - 16 9 - - SSW 986,9 1,5 0 1,0
13.12.2019 16:00:00 7,9 7,6 - - 16 9 - - SW 988,8 3,0 0 0,4
13.12.2019 15:00:00 8,6 5,4 - - 24 13 46 25 W 989,9 9 0 0,0
13.12.2019 14:00:00 8,7 4,2 - - 29 16 52 28 W 990,8 16 0 0,0
13.12.2019 13:00:00 8,7 3,2 - - 29 16 61 33 W 991,4 18 0 0,0
13.12.2019 12:00:00 8,5 3,3 - - 34 18 67 36 W 991,6 20 12 0,0
13.12.2019 11:00:00 8,6 1,9 - - 37 20 70 38 WNW 991,5 17 12 0,2
13.12.2019 10:00:00 6,9 2,6 - - 44 24 67 36 WNW 991,3 7 0 0,0
13.12.2019 09:00:00 8,3 0,4 10,4 10,4 42 23 72 39 WNW 989,6 18 0 0,0
13.12.2019 08:00:00 8,1 1,4 - - 42 23 76 41 WNW 988,5 16 0 0,0
13.12.2019 07:00:00 8,1 1,4 - - 44 24 72 39 WNW 987,6 18 0 0,0
13.12.2019 06:00:00 7,6 1,2 - - 42 23 76 41 WNW 986,6 19 0 0,0
13.12.2019 05:00:00 7,7 1,5 - - 42 23 74 40 WNW 985,8 21 0 0,0
13.12.2019 04:00:00 7,9 2,6 - - 48 26 74 40 WNW 985,2 20 0 0,0
13.12.2019 03:00:00 8,1 3,0 - - 44 24 83 45 WNW 984,3 20 0 0,0
13.12.2019 02:00:00 8,4 2,2 - - 42 23 74 40 WNW 983,1 25 0 0,0
13.12.2019 01:00:00 8,4 2,2 - - 46 25 74 40 WNW 982,4 20 0 0,0
13.12.2019 00:00:00 8,1 2,4 - - 44 24 91 49 WNW 981,9 16 - 1,0
12.12.2019 23:00:00 9,3 2,9 - - 46 25 81 44 WNW 981,3 16 0 0,0
12.12.2019 22:00:00 9,6 2,4 - - 44 24 80 43 WNW 980,8 15 0 0,0
12.12.2019 21:00:00 10,2 4,7 - - 44 24 68 37 W 981,0 10 0 0,0
12.12.2019 20:00:00 10,5 5,5 - - 44 24 65 35 W 981,2 15 0 0,0
12.12.2019 19:00:00 9,9 8,1 - - 37 20 63 34 W 982,2 10 0 0,2
12.12.2019 18:00:00 9,8 8,8 - - 31 17 46 25 W 983,4 6 0 0,4
12.12.2019 17:00:00 10,0 9,0 - - 26 14 - - W 984,5 12 0 0,0
12.12.2019 16:00:00 9,4 7,7 - - 29 16 57 31 W 985,6 12 0 0,4
12.12.2019 15:00:00 10,4 8,0 - - 35 19 54 29 W 986,0 12 30 0,0
12.12.2019 14:00:00 10,5 7,8 - - 37 20 61 33 W 986,1 15 0 0,0
12.12.2019 13:00:00 10,5 8,0 - - 37 20 65 35 WNW 986,3 15 12 0,0
12.12.2019 12:00:00 10,1 7,6 - - - - - - - 986,2 15 0 0,0
12.12.2019 11:00:00 9,6 8,4 - - 34 18 57 31 WNW 986,3 20 0 1,0
12.12.2019 10:00:00 10,1 9,3 - - - - 52 28 - 986,3 4,0 0 1,8
12.12.2019 09:00:00 10,0 9,5 10,2 10,5 29 16 50 27 SW 987,7 4,0 0 3,4
12.12.2019 08:00:00 10,0 9,6 - - 34 18 57 31 SSW 989,7 5 0 1,4
12.12.2019 07:00:00 10,0 9,5 - - 35 19 50 27 SW 991,8 9 0 0,2
12.12.2019 06:00:00 9,8 9,3 - - 31 17 48 26 SW 993,7 8 0 0,8
12.12.2019 05:00:00 9,0 8,8 - - 26 14 - - SSW 995,5 2,0 0 1,2
12.12.2019 04:00:00 8,3 8,0 - - 22 12 - - SW 997,8 5 0 2,0
12.12.2019 03:00:00 8,0 7,2 - - 28 15 - - SSW 999,7 15 0 0,4
12.12.2019 02:00:00 7,7 6,3 - - 24 13 - - SSW 1001,9 18 0 0,2
12.12.2019 01:00:00 6,9 3,9 - - 15 8 - - SSW 1003,9 22 0 0,0
12.12.2019 00:00:00 6,5 2,8 - - 15 8 - - SW 1005,5 25 - 0,0
11.12.2019 23:00:00 6,4 3,4 - - 21 11 - - WSW 1006,2 20 0 0,0
11.12.2019 22:00:00 7,4 0,9 - - 26 14 - - W 1006,7 30 0 0,0
11.12.2019 21:00:00 6,9 0,3 - - 26 14 - - W 1007,1 30 0 0,0
11.12.2019 20:00:00 6,8 0,6 - - 26 14 48 26 WNW 1007,4 30 0 0,0
11.12.2019 19:00:00 7,2 0,9 - - 26 14 46 25 WNW 1007,1 25 0 0,0
11.12.2019 18:00:00 6,2 1,8 - - 26 14 55 30 WNW 1006,9 25 0 0,2
11.12.2019 17:00:00 7,0 0,6 - - 24 13 48 26 WNW 1006,4 25 0 0,0
11.12.2019 16:00:00 7,1 0,6 - - 29 16 48 26 WNW 1005,5 15 0 0,0
11.12.2019 15:00:00 6,2 2,4 - - 24 13 50 27 W 1005,0 25 0 0,4
11.12.2019 14:00:00 5,9 2,0 - - 31 17 54 29 WNW 1004,8 12 0 0,0
11.12.2019 13:00:00 6,2 3,0 - - 22 12 54 29 W 1004,5 25 0 0,4
11.12.2019 12:00:00 7,0 1,3 - - 31 17 48 26 W 1004,4 25 0 0,0
11.12.2019 11:00:00 5,4 2,9 - - 22 12 59 32 W 1005,5 25 18 1,0
11.12.2019 10:00:00 6,2 3,7 - - 15 8 67 36 WSW 1005,6 25 12 0,4
11.12.2019 09:00:00 6,2 4,5 10,7 10,5 21 11 - - WSW 1005,8 15 0 0,4
11.12.2019 08:00:00 6,1 3,6 - - 26 14 48 26 SW 1006,5 6 0 0,8
11.12.2019 07:00:00 5,8 2,8 - - 18 10 - - SW 1007,4 30 0 0,2
11.12.2019 06:00:00 6,5 3,1 - - 21 11 - - SW 1008,1 20 0 0,0
11.12.2019 05:00:00 5,9 3,3 - - 15 8 - - SW 1009,0 20 0 0,2
11.12.2019 04:00:00 6,5 3,0 - - 16 9 - - SW 1010,0 35 0 0,0
11.12.2019 03:00:00 6,7 4,1 - - 16 9 - - WSW 1010,9 20 0 0,0
11.12.2019 02:00:00 7,3 4,1 - - 24 13 - - WSW 1011,3 24 0 0,0
11.12.2019 01:00:00 7,6 3,5 - - 22 12 - - WSW 1011,5 15 0 0,0
11.12.2019 00:00:00 8,4 2,5 - - 24 13 - - W 1011,7 15 - 0,0
10.12.2019 23:00:00 8,4 1,9 - - 26 14 - - W 1011,6 15 0 0,0
10.12.2019 22:00:00 8,5 1,9 - - 26 14 48 26 W 1011,3 15 0 0,0
10.12.2019 21:00:00 8,6 2,6 - - 28 15 52 28 W 1010,8 15 0 0,0
10.12.2019 20:00:00 9,0 2,2 - - 31 17 54 29 W 1010,0 15 0 0,0
10.12.2019 19:00:00 8,7 2,9 - - 28 15 52 28 W 1009,5 25 0 0,2
10.12.2019 18:00:00 8,7 6,1 - - 35 19 57 31 W 1008,9 20 0 0,2
10.12.2019 17:00:00 8,5 6,5 - - 29 16 67 36 W 1007,7 15 0 0,4
10.12.2019 16:00:00 9,2 8,0 - - 48 26 83 45 W 1006,0 8 0 0,8
10.12.2019 15:00:00 12,3 12,0 - - 54 29 78 42 SSW 1004,1 2,0 0 0,4
10.12.2019 14:00:00 12,2 12,0 - - 50 27 81 44 SSW 1005,6 3,0 0 0,0
10.12.2019 13:00:00 12,0 12,0 - - 50 27 74 40 SSW 1007,2 5 0 0,2
10.12.2019 12:00:00 11,9 11,9 - - 46 25 72 39 SSW 1009,0 2,0 0 0,0
10.12.2019 11:00:00 11,9 11,8 - - 44 24 72 39 SSW 1010,5 3,1 0 0,0
10.12.2019 10:00:00 11,5 11,4 - - 44 24 74 40 SSW 1011,8 4,0 0 0,0
10.12.2019 09:00:00 10,9 10,8 10,5 10,5 44 24 72 39 SSW 1013,2 2,0 0 0,4
10.12.2019 08:00:00 10,9 10,7 - - 41 22 70 38 SSW 1013,8 3,0 0 2,2
10.12.2019 07:00:00 10,4 9,9 - - 41 22 65 35 S 1015,2 3,0 0 1,8
10.12.2019 06:00:00 10,1 9,4 - - 35 19 59 32 S 1016,8 5 0 1,8
10.12.2019 05:00:00 10,3 8,1 - - 41 22 57 31 S 1018,2 3,0 0 0,0
10.12.2019 04:00:00 10,1 7,5 - - 37 20 59 32 SSW 1019,4 14 0 0,0
10.12.2019 03:00:00 10,0 7,1 - - 29 16 63 34 S 1021,0 10 0 0,0
10.12.2019 02:00:00 9,7 6,4 - - 31 17 50 27 S 1022,2 18 0 0,0
10.12.2019 01:00:00 8,8 6,0 - - 26 14 - - S 1023,7 15 0 0,0
10.12.2019 00:00:00 8,0 5,3 - - 15 8 - - SSW 1024,7 15 - 0,0
09.12.2019 23:00:00 6,3 4,4 - - 15 8 - - S 1025,3 15 0 0,0
09.12.2019 22:00:00 5,7 4,2 - - 9 5 - - S 1026,1 10 0 0,0
09.12.2019 21:00:00 6,0 4,0 - - 13 7 - - SSE 1026,2 10 0 0,0
09.12.2019 20:00:00 6,0 4,2 - - 9 5 - - S 1026,5 14 0 0,0
09.12.2019 19:00:00 8,0 5,0 - - 8 4 - - W 1026,1 15 0 0,0
09.12.2019 18:00:00 8,0 5,1 - - 8 4 - - W 1026,1 20 0 0,0

tt = temperature
td = dewpoint
tt -20cm = temperature -20cm
tt -100cm = temperature -100cm
ff = wind speed
fx = gusts
dd = wind direction
ppp = reduced air pressure
vv = visibility
sd = sunshine duration
rr = precipitation

Next stations